This demonstration page uses our WeatherBlox Daily Observations layout. Learn more.

Left ArrowRight Arrow

39.51506, -84.39828

Hourly Observations for December 22, 2015

Temp ( °F °C ) Dew Point ( °F °C ) Humidity (%) Winds ( mph kmh ) Pressure ( in mb ) Visibility ( mi km ) Precip ( " mm )
12:15 am 00:15 Cloudy with Drizzle 57 13.8 54 12.1 90 90 S 5 7 29.83 1010 3 5 N/A
12:35 am 00:35 Cloudy with Drizzle 57 13.8 54 12.1 90 90 SSW 7 11 29.83 1010 4 6 N/A
12:55 am 00:55 Cloudy with Drizzle 57 13.8 54 12.1 90 90 SSW 7 11 29.83 1010 4 6 N/A
1:15 am 01:15 Cloudy with Heavy Rain 57 13.8 54 12.1 90 90 SSW 5 7 29.80 1009 3 5 N/A
1:35 am 01:35 Cloudy with Drizzle 57 13.8 54 12.2 90 90 SW 6 9 29.80 1009 4 6 N/A
1:55 am 01:55 Cloudy with Snow 57 13.8 54 12.2 90 90 SW 3 6 29.80 1009 2 2 N/A
2:15 am 02:15 Cloudy with Rain 57 13.8 54 12.2 90 90 SSW 5 7 29.80 1009 2 3 N/A
2:35 am 02:35 Cloudy with Rain 57 13.8 54 12.2 90 90 SSW 5 7 29.80 1009 5 8 N/A
2:55 am 02:55 Cloudy with Heavy Rain 57 13.8 54 12.3 91 91 SSW 3 6 29.80 1009 4 6 N/A
3:15 am 03:15 Cloudy with Rain 57 13.8 54 12.3 91 91 SSW 5 7 29.80 1009 3 4 N/A
3:35 am 03:35 Cloudy with Light Rain 57 13.8 54 12.3 91 91 SSW 5 7 29.77 1008 3 5 N/A
3:55 am 03:55 Cloudy with Light Rain 57 13.8 55 12.5 92 92 WSW 6 9 29.77 1008 2 3 N/A
4:15 am 04:15 Cloudy with Light Rain 57 13.8 55 12.5 92 92 SW 3 6 29.77 1008 4 6 N/A
4:35 am 04:35 Cloudy with Rain 57 13.8 55 12.5 92 92 SW 7 11 29.77 1008 3 5 N/A
4:55 am 04:55 Cloudy 57 13.8 55 12.5 92 92 SW 6 9 29.77 1008 10 16 N/A
5:15 am 05:15 Cloudy with Light Rain 57 13.8 55 12.5 92 92 W 6 9 29.77 1008 10 16 N/A
5:35 am 05:35 Cloudy 57 13.8 55 12.5 92 92 SW 6 9 29.80 1009 10 16 N/A
5:55 am 05:55 Cloudy with Rain 57 13.8 54 12.4 91 91 NW 6 9 29.80 1009 7 11 N/A
6:20 am 06:20 Cloudy with Light Rain 57 13.8 54 12.1 90 90 N N/A 29.80 1009 10 16 N/A
6:35 am 06:35 Cloudy 57 13.8 54 12 89 89 S 3 6 29.80 1009 10 16 N/A
6:55 am 06:55 Partly Cloudy 55 12.5 51 10.5 88 88 SW 7 11 29.83 1010 10 16 N/A
7:15 am 07:15 Clear 53 11.4 49 9.6 89 89 WSW 3 6 29.85 1011 10 16 N/A
7:35 am 07:35 Clear with Mist and Fog 52 11.1 49 9.3 89 89 W 3 6 29.85 1011 4 6 N/A
7:55 am 07:55 Sunny 52 11 49 9.3 89 89 SSW 3 6 29.85 1011 10 16 N/A
8:15 am 08:15 Mostly Cloudy with Fog 49 9.6 46 8 90 90 SW 5 7 29.85 1011 1 1 N/A
8:35 am 08:35 Cloudy 51 10.8 49 9.4 91 91 WSW 7 11 29.88 1012 10 16 N/A
8:55 am 08:55 Cloudy 55 12.5 52 11 91 91 SW 8 13 29.88 1012 10 16 N/A
9:15 am 09:15 Mostly Cloudy 55 12.5 51 10.7 89 89 SW 8 13 29.91 1013 10 16 N/A
9:35 am 09:35 Partly Cloudy 55 12.5 51 10.6 88 88 SW 7 11 29.91 1013 10 16 N/A
9:55 am 09:55 Mostly Cloudy 55 12.5 51 10.4 87 87 SW 3 6 29.91 1013 10 16 N/A
10:15 am 10:15 Partly Cloudy 57 13.8 52 11.2 84 84 SW 6 9 29.91 1013 10 16 N/A
10:35 am 10:35 Mostly Cloudy 57 13.8 52 11 83 83 SW 7 11 29.94 1014 10 16 N/A
10:55 am 10:55 Cloudy 57 13.8 50 10.2 79 79 W 9 15 29.94 1014 10 16 N/A
11:15 am 11:15 Mostly Cloudy 58 14.7 50 9.8 73 73 W 9 15 29.91 1013 10 16 N/A
11:35 am 11:35 Partly Cloudy 57 13.8 48 8.8 72 72 W 9 15 29.91 1013 10 16 N/A
11:55 am 11:55 Partly Cloudy 57 13.8 48 8.7 72 72 W 10 17 29.91 1013 10 16 N/A
12:15 pm 12:15 Partly Cloudy 58 14.3 47 8.3 67 67 WSW 10 17 29.91 1013 10 16 N/A
12:35 pm 12:35 Mostly Cloudy 60 15.3 49 9.4 68 68 WSW 9 15 29.88 1012 10 16 N/A
12:55 pm 12:55 Mostly Cloudy 57 13.8 47 8.2 69 69 W 9 15 29.91 1013 10 16 N/A
1:15 pm 13:15 Mostly Cloudy 60 15.3 48 8.9 66 66 W 10 17 29.88 1012 10 16 N/A
1:35 pm 13:35 Mostly Cloudy 60 15.3 47 8.2 63 63 SW 6 9 29.88 1012 10 16 N/A
1:55 pm 13:55 Partly Cloudy 60 15.3 47 8.1 62 62 SW 7 11 29.88 1012 10 16 N/A
2:15 pm 14:15 Sunny 60 15.3 47 8.6 65 65 SSW 5 7 29.88 1012 10 16 N/A
2:35 pm 14:35 Partly Cloudy 60 15.6 47 8.1 61 61 SSW 6 9 29.85 1011 10 16 N/A
2:55 pm 14:55 Sunny 60 15.8 47 8.2 61 61 S 6 9 29.88 1012 10 16 N/A
3:15 pm 15:15 Sunny 60 15.8 47 8.1 60 60 WSW 6 9 29.88 1012 10 16 N/A
3:35 pm 15:35 Partly Cloudy 61 16 47 8.6 62 62 SSW 8 13 29.88 1012 10 16 N/A
3:55 pm 15:55 Partly Cloudy 61 16 48 8.8 63 63 SSW 6 9 29.85 1011 10 16 N/A
4:15 pm 16:15 Sunny 61 16 48 8.9 63 63 SSW 5 7 29.85 1011 10 16 N/A
4:35 pm 16:35 Sunny 60 15.5 47 8.5 63 63 S 3 6 29.85 1011 10 16 N/A
4:55 pm 16:55 Sunny 60 15.3 48 8.7 65 65 SSW 5 7 29.88 1012 10 16 N/A
5:15 pm 17:15 Sunny 57 13.9 47 8.1 68 68 SSW 3 6 29.91 1013 10 16 N/A
5:35 pm 17:35 Clear 55 12.8 48 8.8 77 77 N N/A 29.91 1013 10 16 N/A
5:55 pm 17:55 Clear 51 10.4 46 7.6 83 83 N N/A 29.91 1013 10 16 N/A
6:15 pm 18:15 Clear 51 10.3 47 8.1 86 86 N N/A 29.91 1013 10 16 N/A
6:35 pm 18:35 Clear 49 9.6 46 7.6 87 87 N 3 6 29.91 1013 10 16 N/A
6:55 pm 18:55 Clear 49 9.6 46 7.8 89 89 N N/A 29.91 1013 10 16 N/A
7:15 pm 19:15 Partly Cloudy 49 9.6 46 8 90 90 N N/A 29.91 1013 10 16 N/A
7:35 pm 19:35 Partly Cloudy 49 9.6 46 8 90 90 N N/A 29.91 1013 10 16 N/A
7:55 pm 19:55 Partly Cloudy 49 9.6 46 8 90 90 N N/A 29.91 1013 10 16 N/A
8:15 pm 20:15 Mostly Cloudy 47 8.2 44 6.5 89 89 N N/A 29.91 1013 10 16 N/A
8:35 pm 20:35 Partly Cloudy 49 9.5 46 7.9 90 90 N N/A 29.91 1013 10 16 N/A
8:55 pm 20:55 Clear 47 8.2 44 6.5 89 89 N N/A 29.91 1013 7 11 N/A
9:15 pm 21:15 Clear 45 7.4 42 5.7 89 89 N N/A 29.91 1013 7 11 N/A
9:35 pm 21:35 Clear 46 7.9 43 6.2 89 89 N N/A 29.91 1013 10 16 N/A
9:55 pm 21:55 Clear 45 7 42 5.3 89 89 N N/A 29.88 1012 10 16 N/A
10:15 pm 22:15 Clear 45 7 42 5.4 90 90 N N/A 29.88 1012 7 11 N/A
10:35 pm 22:35 Clear with Mist and Fog 45 7.4 42 5.8 90 90 N N/A 29.88 1012 5 8 N/A
10:55 pm 22:55 Partly Cloudy 44 6.8 41 5.2 90 90 N N/A 29.88 1012 10 16 N/A
11:15 pm 23:15 Partly Cloudy 44 6.8 41 5.2 90 90 N N/A 29.88 1012 10 16 N/A
11:35 pm 23:35 Mostly Cloudy 47 8.1 44 6.5 90 90 N N/A 29.88 1012 10 16 N/A
11:55 pm 23:55 Mostly Cloudy 48 8.9 45 7.3 90 90 N N/A 29.85 1011 10 16 N/A

Powered by AerisWeather